TimeCDT,TemperatureF,Dew PointF,Humidity,Sea Level PressureIn,VisibilityMPH,Wind Direction,Wind SpeedMPH,Gust SpeedMPH,PrecipitationIn,Events,Conditions,WindDirDegrees,DateUTC
12:53 AM,43.0,39.9,89,29.95,8.0,East,3.5,-,N/A,,Clear,80,2012-10-31 05:53:00
1:53 AM,42.1,39.9,92,29.94,7.0,Calm,Calm,-,N/A,,Clear,0,2012-10-31 06:53:00
2:53 AM,42.1,39.9,92,29.95,5.0,Calm,Calm,-,N/A,,Clear,0,2012-10-31 07:53:00
3:11 AM,41.0,41.0,100,29.95,1.8,Calm,Calm,-,N/A,,Clear,0,2012-10-31 08:11:00
3:33 AM,41.0,39.9,96,29.95,0.5,Calm,Calm,-,N/A,Fog,Fog,0,2012-10-31 08:33:00
3:53 AM,41.0,39.9,96,29.94,0.2,Calm,Calm,-,N/A,Fog,Fog,0,2012-10-31 08:53:00
4:02 AM,39.9,39.0,97,29.94,0.5,Calm,Calm,-,N/A,Fog,Fog,0,2012-10-31 09:02:00
4:11 AM,41.0,39.9,96,29.94,2.5,Calm,Calm,-,N/A,,Clear,0,2012-10-31 09:11:00
4:18 AM,41.0,39.9,96,29.94,6.0,Calm,Calm,-,N/A,,Clear,0,2012-10-31 09:18:00
4:46 AM,41.0,39.9,96,29.94,1.8,Calm,Calm,-,N/A,,Clear,0,2012-10-31 09:46:00
4:53 AM,41.0,39.9,96,29.94,1.2,Calm,Calm,-,N/A,,Clear,0,2012-10-31 09:53:00
5:09 AM,41.0,39.0,93,29.94,0.5,Calm,Calm,-,N/A,Fog,Fog,0,2012-10-31 10:09:00
5:21 AM,39.0,39.0,100,29.94,1.0,Calm,Calm,-,N/A,,Clear,0,2012-10-31 10:21:00
5:41 AM,39.0,37.9,96,29.94,0.8,Calm,Calm,-,N/A,,Clear,0,2012-10-31 10:41:00
5:46 AM,39.9,39.0,97,29.94,2.0,Calm,Calm,-,N/A,,Clear,0,2012-10-31 10:46:00
5:53 AM,39.9,39.0,97,29.93,4.0,Calm,Calm,-,N/A,,Clear,0,2012-10-31 10:53:00
6:20 AM,39.0,37.9,96,29.93,2.0,Calm,Calm,-,N/A,,Clear,0,2012-10-31 11:20:00
6:51 AM,39.2,37.4,93,29.94,0.8,Calm,Calm,-,N/A,,Clear,0,2012-10-31 11:51:00
6:53 AM,39.0,37.9,96,29.94,1.0,NE,3.5,-,N/A,,Clear,50,2012-10-31 11:53:00
7:02 AM,39.0,37.0,93,29.94,3.0,Calm,Calm,-,N/A,,Clear,0,2012-10-31 12:02:00
7:35 AM,37.9,37.0,97,29.95,1.8,NNW,3.5,-,N/A,,Clear,340,2012-10-31 12:35:00
7:53 AM,39.0,37.9,96,29.95,2.5,Calm,Calm,-,N/A,,Clear,0,2012-10-31 12:53:00
8:01 AM,39.9,39.0,97,29.95,4.0,Calm,Calm,-,N/A,,Clear,0,2012-10-31 13:01:00
8:53 AM,46.9,43.0,86,29.96,8.0,Calm,Calm,-,N/A,,Clear,0,2012-10-31 13:53:00
9:53 AM,55.0,46.9,74,29.97,10.0,Calm,Calm,-,N/A,,Clear,0,2012-10-31 14:53:00
10:53 AM,62.1,46.9,58,29.98,10.0,Calm,Calm,-,N/A,,Clear,0,2012-10-31 15:53:00
11:53 AM,71.1,46.0,41,29.98,10.0,NE,11.5,-,N/A,,Clear,50,2012-10-31 16:53:00
12:53 PM,73.0,46.0,38,29.97,10.0,ESE,4.6,-,N/A,,Clear,110,2012-10-31 17:53:00
1:53 PM,77.0,46.0,33,29.96,10.0,ENE,3.5,-,N/A,,Clear,60,2012-10-31 18:53:00
2:53 PM,80.1,44.1,28,29.93,10.0,North,4.6,-,N/A,,Clear,360,2012-10-31 19:53:00
3:53 PM,80.1,42.1,26,29.93,10.0,ENE,5.8,-,N/A,,Clear,60,2012-10-31 20:53:00
4:53 PM,80.1,43.0,27,29.92,10.0,Calm,Calm,-,N/A,,Clear,0,2012-10-31 21:53:00
5:53 PM,75.0,46.9,37,29.93,10.0,South,3.5,-,N/A,,Clear,190,2012-10-31 22:53:00
6:53 PM,63.0,48.9,60,29.94,10.0,ESE,4.6,-,N/A,,Clear,120,2012-10-31 23:53:00
7:53 PM,57.9,48.9,72,29.96,10.0,Calm,Calm,-,N/A,,Clear,0,2012-11-01 00:53:00
8:53 PM,53.1,48.0,83,29.96,10.0,Calm,Calm,-,N/A,,Clear,0,2012-11-01 01:53:00
9:53 PM,51.1,48.0,89,29.98,10.0,Calm,Calm,-,N/A,,Clear,0,2012-11-01 02:53:00
10:53 PM,48.0,46.9,96,29.99,8.0,ENE,3.5,-,N/A,,Clear,70,2012-11-01 03:53:00
11:53 PM,46.9,45.0,93,29.99,5.0,East,3.5,-,N/A,,Clear,80,2012-11-01 04:53:00